Pagina principale
METAR-TAF:

METAR-TAF

Aeroporti :

Torino, Italia

Bric della Croce

latitudine: 45-02N, longitudine: 007-44E, altezza: 709 m

Osservazione

Il bollettino è stato emesso 43 minuti fa, alle 12:55 UTC
Vento calmo
Temperature 17°C
Umidità 39%
Pressione 1011 hPa
Visibilità 10 km o più
nessuna nube inferiore a 1500 m e nessun cumulonembo

METAR: LIMK 191255Z 00000KT CAVOK 17/03 Q1011 RMK FEW FEW056 VAL NIL VIS MIN 9999

Ora: 15:38 (13:38 UTC)


TAF: mancante

Osservazioni e previsioni meteorologiche di più di 4000 aeroporti (messaggi METAR e TAF).

Le stazioni disponibili sono rappresentate dai dischi gialli e rossi sulla carta.

Puntare il mouse per vedere il nome della stazione.

Clicca sopra per visualizzare le osservazioni e previsioni meteorologiche.

Per cambiare la mappa : fare clic sui pulsanti verdi con una croce nera per ingrandire, il pulsante verde con un trattino per diminuire, o sulla freccia verde per le mappe adiacenti.


METAR-TAF: